WZZ2352 LIMJ-LHBP

Flight info

Callsign WZZ2352
Flight time 1h 14m
Altitude 35000
Route GEN DCT GOLAS DCT KALIK DCT LURUT DCT CHI DCT BARPI DCT KOPRY DCT ULZAK
Aircraft A21N/M-SDE3FGHIRWY/LB1

Departure

Time 2026-05-04 18:03
Airport Genoa Cristoforo Colombo Airport (LIMJ)

Arrival

Time 2026-05-04 19:17
Airport Budapest Liszt Ferenc International Airport (LHBP)
Time Latitude Longitude Altitude Speed Heading
2026-05-04 17:48 44.41262 8.85125 20 ft 0 kts 195°
2026-05-04 17:54 44.41263 8.85125 20 ft 1 kts 195°
2026-05-04 17:54 44.41276 8.85130 22 ft 3 kts 205°
2026-05-04 17:55 44.41293 8.85143 21 ft 3 kts 229°
2026-05-04 17:55 44.41305 8.85164 23 ft 3 kts 257°
2026-05-04 17:55 44.41308 8.85187 23 ft 2 kts 283°
2026-05-04 17:55 44.41307 8.85192 23 ft 0 kts 285°
2026-05-04 17:57 44.41310 8.85181 23 ft 4 kts 285°
2026-05-04 17:57 44.41326 8.85097 20 ft 13 kts 285°
2026-05-04 17:58 44.41353 8.84945 20 ft 18 kts 282°
2026-05-04 17:58 44.41388 8.84757 22 ft 21 kts 284°
2026-05-04 17:58 44.41415 8.84610 20 ft 11 kts 272°
2026-05-04 17:58 44.41372 8.84511 20 ft 13 kts 232°
2026-05-04 17:59 44.41317 8.84403 20 ft 12 kts 247°
2026-05-04 17:59 44.41331 8.84276 21 ft 15 kts 286°
2026-05-04 17:59 44.41408 8.83879 20 ft 27 kts 286°
2026-05-04 18:00 44.41456 8.83631 20 ft 26 kts 284°
2026-05-04 18:00 44.41503 8.83397 21 ft 25 kts 285°
2026-05-04 18:00 44.41548 8.83159 21 ft 26 kts 285°
2026-05-04 18:00 44.41597 8.82917 20 ft 26 kts 286°
2026-05-04 18:01 44.41643 8.82682 20 ft 23 kts 285°
2026-05-04 18:01 44.41660 8.82546 20 ft 11 kts 257°
2026-05-04 18:01 44.41596 8.82495 18 ft 6 kts 194°
2026-05-04 18:02 44.41520 8.82523 18 ft 8 kts 115°
2026-05-04 18:02 44.41496 8.82646 19 ft 37 kts 105°
2026-05-04 18:02 44.41349 8.83401 22 ft 120 kts 105°
2026-05-04 18:02 44.41075 8.84809 189 ft 167 kts 108°
2026-05-04 18:03 44.40728 8.86406 1006 ft 178 kts 109°
2026-05-04 18:03 44.40346 8.88092 1931 ft 185 kts 109°
2026-05-04 18:03 44.39933 8.89855 2664 ft 200 kts 110°
2026-05-04 18:03 44.39464 8.91775 3231 ft 216 kts 110°
2026-05-04 18:04 44.38958 8.93845 3739 ft 235 kts 110°
2026-05-04 18:04 44.38490 8.96087 4445 ft 247 kts 97°
2026-05-04 18:04 44.39482 9.00814 6133 ft 268 kts 65°
2026-05-04 18:05 44.40385 9.03104 6947 ft 277 kts 64°
2026-05-04 18:05 44.41334 9.05445 7933 ft 279 kts 64°
2026-05-04 18:05 44.42173 9.07892 8857 ft 281 kts 74°
2026-05-04 18:05 44.42615 9.10564 9699 ft 282 kts 87°
2026-05-04 18:06 44.42915 9.16285 10711 ft 317 kts 88°
2026-05-04 18:06 44.43091 9.19470 11019 ft 338 kts 88°
2026-05-04 18:06 44.43285 9.22800 11685 ft 347 kts 87°
2026-05-04 18:07 44.43485 9.26195 12381 ft 354 kts 87°
2026-05-04 18:07 44.43687 9.29657 13104 ft 360 kts 87°
2026-05-04 18:07 44.43890 9.33172 13808 ft 366 kts 86°
2026-05-04 18:07 44.44094 9.36751 14462 ft 372 kts 86°
2026-05-04 18:08 44.44301 9.40380 15136 ft 376 kts 86°
2026-05-04 18:08 44.44510 9.44056 15788 ft 381 kts 87°
2026-05-04 18:08 44.44720 9.47770 16462 ft 385 kts 87°
2026-05-04 18:08 44.44931 9.51527 17113 ft 390 kts 87°
2026-05-04 18:09 44.45356 9.59163 18366 ft 398 kts 87°
2026-05-04 18:09 44.45791 9.66885 19551 ft 403 kts 86°
2026-05-04 18:10 44.46023 9.70818 20104 ft 406 kts 86°
2026-05-04 18:10 44.46255 9.74770 20679 ft 409 kts 86°
2026-05-04 18:10 44.46487 9.78752 21246 ft 412 kts 86°
2026-05-04 18:10 44.46717 9.82762 21799 ft 415 kts 86°
2026-05-04 18:11 44.46947 9.86808 22364 ft 418 kts 86°
2026-05-04 18:11 44.47167 9.90882 22890 ft 422 kts 87°
2026-05-04 18:11 44.47382 9.94988 23415 ft 425 kts 87°
2026-05-04 18:11 44.47598 9.99130 23877 ft 428 kts 87°
2026-05-04 18:12 44.47815 10.03307 24294 ft 432 kts 87°
2026-05-04 18:12 44.48032 10.07517 24678 ft 436 kts 87°
2026-05-04 18:12 44.48251 10.11778 25078 ft 440 kts 87°
2026-05-04 18:12 44.48470 10.16064 25489 ft 443 kts 87°
2026-05-04 18:13 44.48690 10.20383 25870 ft 447 kts 87°
2026-05-04 18:13 44.48909 10.24737 26233 ft 450 kts 87°
2026-05-04 18:13 44.49348 10.33557 26964 ft 457 kts 87°
2026-05-04 18:14 44.49563 10.37937 27320 ft 460 kts 87°
2026-05-04 18:14 44.49782 10.42413 27664 ft 463 kts 87°
2026-05-04 18:14 44.50001 10.46926 28009 ft 466 kts 87°
2026-05-04 18:15 44.50437 10.56032 28660 ft 471 kts 87°
2026-05-04 18:15 44.50870 10.65239 29277 ft 476 kts 87°
2026-05-04 18:15 44.51084 10.69873 29590 ft 478 kts 87°
2026-05-04 18:16 44.51298 10.74535 29867 ft 481 kts 87°
2026-05-04 18:16 44.51511 10.79217 30187 ft 483 kts 87°
2026-05-04 18:16 44.51723 10.83915 30433 ft 485 kts 87°
2026-05-04 18:17 44.52200 10.93373 30907 ft 489 kts 82°
2026-05-04 18:17 44.52924 10.97972 31146 ft 490 kts 71°
2026-05-04 18:17 44.55887 11.06522 31753 ft 488 kts 57°
2026-05-04 18:18 44.57645 11.10581 32072 ft 487 kts 57°
2026-05-04 18:18 44.59394 11.14644 32409 ft 486 kts 57°
2026-05-04 18:18 44.61137 11.18710 32731 ft 486 kts 57°
2026-05-04 18:18 44.62876 11.22775 33060 ft 485 kts 57°
2026-05-04 18:19 44.66318 11.30835 33693 ft 484 kts 57°
2026-05-04 18:19 44.68046 11.34889 34008 ft 483 kts 57°
2026-05-04 18:19 44.69769 11.38937 34278 ft 483 kts 57°
2026-05-04 18:20 44.71490 11.42987 34534 ft 482 kts 57°
2026-05-04 18:20 44.73204 11.47026 34793 ft 481 kts 57°
2026-05-04 18:20 44.74915 11.51065 35036 ft 481 kts 57°
2026-05-04 18:20 44.76625 11.55107 35099 ft 480 kts 57°
2026-05-04 18:21 44.80027 11.63163 35109 ft 478 kts 57°
2026-05-04 18:21 44.83416 11.71209 35110 ft 478 kts 58°
2026-05-04 18:22 44.86796 11.79259 35103 ft 477 kts 58°
2026-05-04 18:22 44.90165 11.87305 35092 ft 476 kts 58°
2026-05-04 18:23 44.93523 11.95347 35076 ft 475 kts 58°
2026-05-04 18:23 44.96870 12.03386 35067 ft 474 kts 58°
2026-05-04 18:24 45.00202 12.11411 35061 ft 474 kts 58°
2026-05-04 18:24 45.03528 12.19447 35061 ft 473 kts 58°
2026-05-04 18:25 45.06841 12.27472 35060 ft 473 kts 58°
2026-05-04 18:25 45.09871 12.34712 35060 ft 472 kts 57°
2026-05-04 18:26 45.13253 12.42678 35054 ft 472 kts 57°
2026-05-04 18:26 45.16054 12.49312 35049 ft 472 kts 57°
2026-05-04 18:27 45.19414 12.57305 35053 ft 472 kts 58°
2026-05-04 18:27 45.22763 12.65301 35054 ft 472 kts 58°
2026-05-04 18:28 45.26108 12.73310 35049 ft 472 kts 58°
2026-05-04 18:28 45.29446 12.81324 35062 ft 471 kts 58°
2026-05-04 18:29 45.32755 12.89292 35069 ft 471 kts 58°
2026-05-04 18:29 45.36077 12.97312 35069 ft 471 kts 58°
2026-05-04 18:30 45.41048 13.09357 35052 ft 470 kts 58°
2026-05-04 18:31 45.44271 13.17195 35057 ft 470 kts 58°
2026-05-04 18:31 45.47566 13.25232 35073 ft 470 kts 58°
2026-05-04 18:32 45.50855 13.33277 35069 ft 469 kts 58°
2026-05-04 18:32 45.54131 13.41313 35067 ft 469 kts 59°
2026-05-04 18:33 45.57222 13.49180 35071 ft 469 kts 63°
2026-05-04 18:33 45.59717 13.57774 35074 ft 469 kts 71°
2026-05-04 18:34 45.61575 13.66707 35069 ft 469 kts 73°
2026-05-04 18:34 45.63409 13.75652 35079 ft 469 kts 73°
2026-05-04 18:35 45.65229 13.84532 35086 ft 469 kts 73°
2026-05-04 18:35 45.67055 13.93481 35085 ft 469 kts 73°
2026-05-04 18:36 45.68872 14.02433 35084 ft 469 kts 73°
2026-05-04 18:36 45.70680 14.11383 35087 ft 468 kts 74°
2026-05-04 18:37 45.72481 14.20340 35093 ft 468 kts 74°
2026-05-04 18:37 45.74274 14.29295 35090 ft 468 kts 74°
2026-05-04 18:38 45.76058 14.38249 35091 ft 467 kts 74°
2026-05-04 18:38 45.77834 14.47200 35073 ft 467 kts 74°
2026-05-04 18:39 45.79600 14.56142 35072 ft 466 kts 74°
2026-05-04 18:39 45.80976 14.63142 35066 ft 466 kts 74°
2026-05-04 18:40 45.82726 14.72089 35060 ft 465 kts 74°
2026-05-04 18:40 45.84467 14.81020 35055 ft 465 kts 74°
2026-05-04 18:41 45.86201 14.89953 35056 ft 465 kts 74°
2026-05-04 18:41 45.87927 14.98883 35053 ft 464 kts 74°
2026-05-04 18:42 45.89642 15.07797 35039 ft 463 kts 74°
2026-05-04 18:42 45.91348 15.16710 35033 ft 463 kts 74°
2026-05-04 18:43 45.93045 15.25617 35037 ft 462 kts 74°
2026-05-04 18:43 45.94720 15.34450 35021 ft 461 kts 74°
2026-05-04 18:44 45.96398 15.43341 35022 ft 461 kts 74°
2026-05-04 18:44 45.98066 15.52226 35018 ft 460 kts 74°
2026-05-04 18:45 45.99726 15.61103 35020 ft 460 kts 74°
2026-05-04 18:45 46.01377 15.69978 35017 ft 459 kts 74°
2026-05-04 18:46 46.03020 15.78849 35017 ft 458 kts 74°
2026-05-04 18:46 46.04653 15.87714 35005 ft 458 kts 74°
2026-05-04 18:47 46.06278 15.96570 35003 ft 458 kts 74°
2026-05-04 18:47 46.07895 16.05427 35005 ft 457 kts 74°
2026-05-04 18:48 46.09505 16.14292 34988 ft 457 kts 74°
2026-05-04 18:48 46.11095 16.23085 34990 ft 457 kts 74°
2026-05-04 18:49 46.12690 16.31950 34991 ft 457 kts 74°
2026-05-04 18:49 46.14277 16.40813 34992 ft 457 kts 74°
2026-05-04 18:50 46.15857 16.49683 34989 ft 457 kts 74°
2026-05-04 18:50 46.17431 16.58562 35000 ft 457 kts 74°
2026-05-04 18:51 46.18998 16.67444 35000 ft 457 kts 74°
2026-05-04 18:51 46.20557 16.76322 35002 ft 456 kts 74°
2026-05-04 18:52 46.22109 16.85207 35004 ft 456 kts 75°
2026-05-04 18:52 46.23818 16.94010 35002 ft 454 kts 67°
2026-05-04 18:53 46.26783 17.02005 35008 ft 450 kts 53°
2026-05-04 18:53 46.30377 17.09418 35010 ft 450 kts 53°
2026-05-04 18:54 46.33917 17.16777 34650 ft 442 kts 53°
2026-05-04 18:54 46.35650 17.20392 34346 ft 432 kts 53°
2026-05-04 18:54 46.37346 17.23936 34029 ft 426 kts 53°
2026-05-04 18:54 46.39037 17.27467 33688 ft 429 kts 53°
2026-05-04 18:55 46.40749 17.31046 33338 ft 434 kts 53°
2026-05-04 18:55 46.44183 17.38243 32642 ft 434 kts 53°
2026-05-04 18:55 46.45898 17.41845 32305 ft 434 kts 53°
2026-05-04 18:56 46.47615 17.45457 31978 ft 436 kts 53°
2026-05-04 18:56 46.49337 17.49082 31643 ft 437 kts 53°
2026-05-04 18:56 46.51060 17.52716 31315 ft 437 kts 53°
2026-05-04 18:56 46.52784 17.56356 30989 ft 438 kts 54°
2026-05-04 18:57 46.54217 17.59385 30722 ft 438 kts 54°
2026-05-04 18:57 46.55941 17.63033 30420 ft 436 kts 54°
2026-05-04 18:57 46.57652 17.66660 30090 ft 434 kts 54°
2026-05-04 18:57 46.59357 17.70279 29586 ft 433 kts 54°
2026-05-04 18:58 46.61048 17.73872 29086 ft 429 kts 54°
2026-05-04 18:58 46.62701 17.77390 28597 ft 425 kts 54°
2026-05-04 18:58 46.64361 17.80926 28116 ft 422 kts 54°
2026-05-04 18:58 46.66052 17.84387 27633 ft 418 kts 47°
2026-05-04 18:59 46.68157 17.87251 27176 ft 413 kts 37°
2026-05-04 18:59 46.70409 17.89833 26718 ft 412 kts 37°
2026-05-04 18:59 46.72652 17.92415 26263 ft 409 kts 37°
2026-05-04 18:59 46.74875 17.94981 25814 ft 406 kts 37°
2026-05-04 19:00 46.77084 17.97536 25382 ft 404 kts 37°
2026-05-04 19:00 46.79276 18.00075 24940 ft 401 kts 37°
2026-05-04 19:00 46.81456 18.02604 24525 ft 399 kts 37°
2026-05-04 19:00 46.83624 18.05122 24105 ft 397 kts 37°
2026-05-04 19:01 46.85782 18.07631 23689 ft 395 kts 37°
2026-05-04 19:01 46.87930 18.10130 23214 ft 393 kts 37°
2026-05-04 19:01 46.90062 18.12614 22714 ft 391 kts 37°
2026-05-04 19:01 46.92177 18.15080 22241 ft 388 kts 37°
2026-05-04 19:02 46.94279 18.17532 21759 ft 385 kts 38°
2026-05-04 19:02 46.96124 18.19687 21358 ft 384 kts 38°
2026-05-04 19:02 46.98081 18.21976 20873 ft 381 kts 38°
2026-05-04 19:02 47.00146 18.24393 20317 ft 378 kts 38°
2026-05-04 19:03 47.02192 18.26791 19789 ft 375 kts 38°
2026-05-04 19:03 47.04224 18.29174 19249 ft 372 kts 38°
2026-05-04 19:03 47.06239 18.31540 18724 ft 370 kts 38°
2026-05-04 19:03 47.08211 18.33857 18202 ft 367 kts 38°
2026-05-04 19:04 47.10197 18.36194 17614 ft 365 kts 38°
2026-05-04 19:04 47.12167 18.38514 17049 ft 362 kts 38°
2026-05-04 19:04 47.14126 18.40824 16478 ft 360 kts 39°
2026-05-04 19:04 47.16073 18.43122 15924 ft 358 kts 39°
2026-05-04 19:05 47.18004 18.45403 15380 ft 356 kts 39°
2026-05-04 19:05 47.19926 18.47674 14846 ft 354 kts 39°
2026-05-04 19:05 47.21839 18.49939 14317 ft 352 kts 39°
2026-05-04 19:05 47.23739 18.52190 13819 ft 349 kts 39°
2026-05-04 19:06 47.25622 18.54424 13294 ft 346 kts 39°
2026-05-04 19:06 47.27489 18.56641 12776 ft 343 kts 39°
2026-05-04 19:06 47.29338 18.58840 12265 ft 340 kts 39°
2026-05-04 19:06 47.31173 18.61023 11766 ft 338 kts 39°
2026-05-04 19:07 47.32996 18.63194 11267 ft 335 kts 39°
2026-05-04 19:07 47.34805 18.65349 10788 ft 333 kts 39°
2026-05-04 19:07 47.36596 18.67485 10299 ft 328 kts 39°
2026-05-04 19:07 47.38308 18.69530 9846 ft 319 kts 39°
2026-05-04 19:08 47.40006 18.71558 9388 ft 309 kts 39°
2026-05-04 19:08 47.41656 18.73530 8924 ft 302 kts 39°
2026-05-04 19:08 47.43266 18.75457 8468 ft 294 kts 39°
2026-05-04 19:08 47.44818 18.77314 8022 ft 288 kts 39°
2026-05-04 19:09 47.46356 18.79157 7579 ft 282 kts 39°
2026-05-04 19:09 47.47862 18.80964 7143 ft 276 kts 39°
2026-05-04 19:09 47.49339 18.82737 6701 ft 271 kts 39°
2026-05-04 19:09 47.50796 18.84490 6230 ft 269 kts 39°
2026-05-04 19:10 47.52235 18.86237 5717 ft 267 kts 39°
2026-05-04 19:10 47.53673 18.87969 5232 ft 266 kts 39°
2026-05-04 19:10 47.55101 18.89677 4735 ft 263 kts 41°
2026-05-04 19:10 47.56181 18.91775 4243 ft 254 kts 72°
2026-05-04 19:11 47.56736 18.94200 4017 ft 242 kts 75°
2026-05-04 19:11 47.57233 18.96495 3995 ft 224 kts 76°
2026-05-04 19:11 47.57635 18.98688 3973 ft 221 kts 90°
2026-05-04 19:11 47.57409 19.00886 3987 ft 213 kts 117°
2026-05-04 19:12 47.56674 19.02758 3897 ft 211 kts 131°
2026-05-04 19:12 47.54786 19.05966 3330 ft 202 kts 136°
2026-05-04 19:12 47.53863 19.07475 3056 ft 194 kts 136°
2026-05-04 19:13 47.52978 19.08915 2795 ft 183 kts 136°
2026-05-04 19:13 47.52152 19.10259 2564 ft 170 kts 137°
2026-05-04 19:13 47.51384 19.11508 2353 ft 158 kts 137°
2026-05-04 19:13 47.50674 19.12664 2156 ft 145 kts 138°
2026-05-04 19:14 47.50012 19.13737 1975 ft 142 kts 138°
2026-05-04 19:14 47.49345 19.14817 1784 ft 141 kts 137°
2026-05-04 19:14 47.48682 19.15888 1601 ft 142 kts 137°
2026-05-04 19:14 47.48017 19.16941 1393 ft 141 kts 135°
2026-05-04 19:15 47.47363 19.18041 1217 ft 144 kts 134°
2026-05-04 19:15 47.46683 19.19126 1019 ft 143 kts 134°
2026-05-04 19:15 47.46018 19.20213 839 ft 142 kts 133°
2026-05-04 19:15 47.45360 19.21284 636 ft 139 kts 132°
2026-05-04 19:16 47.44708 19.22343 477 ft 139 kts 133°
2026-05-04 19:16 47.44119 19.23297 454 ft 101 kts 132°
2026-05-04 19:16 47.43699 19.23974 454 ft 80 kts 132°
2026-05-04 19:16 47.43365 19.24515 452 ft 54 kts 132°
2026-05-04 19:17 47.43165 19.24837 456 ft 25 kts 133°
2026-05-04 19:17 47.43096 19.24981 457 ft 16 kts 101°
2026-05-04 19:17 47.43150 19.25125 457 ft 13 kts 43°
2026-05-04 19:17 47.43192 19.25184 457 ft 2 kts 42°
2026-05-04 19:18 47.43210 19.25208 457 ft 6 kts 43°
2026-05-04 19:18 47.43248 19.25260 456 ft 9 kts 43°
2026-05-04 19:18 47.43305 19.25337 457 ft 13 kts 41°
2026-05-04 19:18 47.43379 19.25435 457 ft 16 kts 42°
2026-05-04 19:19 47.43468 19.25555 456 ft 19 kts 41°
2026-05-04 19:19 47.43570 19.25690 457 ft 21 kts 42°
2026-05-04 19:19 47.43684 19.25844 457 ft 18 kts 42°
2026-05-04 19:19 47.43734 19.25941 457 ft 11 kts 80°
2026-05-04 19:20 47.43690 19.26047 457 ft 14 kts 129°
2026-05-04 19:20 47.43677 19.26180 457 ft 15 kts 87°
2026-05-04 19:20 47.43676 19.26316 458 ft 12 kts 101°
2026-05-04 19:20 47.43637 19.26390 458 ft 7 kts 155°
2026-05-04 19:21 47.43604 19.26367 458 ft 7 kts 220°
2026-05-04 19:21 47.43587 19.26343 457 ft 0 kts 223°